CW2551 Weather Reports


Display with metric or nautical units.
time (UTC)temp
F
wind
direction
speed
MPH
gust
MPH
rain 1hr
in
rain 24hr
in
rain mn
in
humidity
%
barometer
mb
20260506002604 79 328 0.0 5.0 0.00 0.00 0.00 44 1010.7
20260506002104 79 345 5.0 10.0 0.00 0.00 0.00 43 1010.8
20260506001604 78 347 2.0 5.0 0.00 0.00 0.00 45 1010.7
20260506001104 79 302 0.0 2.0 0.00 0.00 0.00 43 1010.7
20260506001023 79 278 0.0 0.0 0.00 0.00 0.00 46 1010.7
20260506000105 79 326 0.0 1.0 0.00 0.00 0.00 43 1010.7
20260505235605 78 326 0.0 3.0 0.00 0.00 0.00 44 1010.7
20260505235104 78 8 2.0 9.0 0.00 0.00 0.00 45 1010.7
20260505235021 78 0 0.0 3.0 0.00 0.00 0.00 45 1010.7
20260505234604 78 0 0.0 3.0 0.00 0.00 0.00 45 1010.7
20260505234104 79 0 0.0 0.0 0.00 0.00 0.00 47 1010.7
20260505234022 78 0 0.0 0.0 0.00 0.00 0.00 45 1010.7
20260505233604 78 0 0.0 0.0 0.00 0.00 0.00 45 1010.7
20260505233104 79 5 1.0 9.0 0.00 0.00 0.00 42 1010.8
20260505233027 78 37 0.0 6.0 0.00 0.00 0.00 44 1010.8
20260505232605 78 37 0.0 6.0 0.00 0.00 0.00 44 1010.8
20260505232104 78 325 0.0 3.0 0.00 0.00 0.00 45 1010.8
20260505231104 79 309 2.0 5.0 0.00 0.00 0.00 42 1010.9
20260505231022 78 282 0.0 3.0 0.00 0.00 0.00 44 1010.9
20260505230605 78 282 0.0 3.0 0.00 0.00 0.00 44 1010.9
20260505230104 79 326 0.0 3.0 0.00 0.00 0.00 40 1011.0
20260505230026 79 0 3.0 8.0 0.00 0.00 0.00 41 1011.1
20260505225604 79 0 3.0 8.0 0.00 0.00 0.00 41 1011.1
20260505225105 78 344 0.0 0.0 0.00 0.00 0.00 43 1011.2
20260505225021 78 342 0.0 2.0 0.00 0.00 0.00 41 1011.2
20260505224606 78 342 0.0 2.0 0.00 0.00 0.00 41 1011.2
20260505224022 77 204 0.0 0.0 0.00 0.00 0.00 44 1011.3
20260505223605 77 204 0.0 0.0 0.00 0.00 0.00 44 1011.3
20260505223104 78 202 0.0 0.0 0.00 0.00 0.00 43 1011.4
20260505223023 78 69 0.0 0.0 0.00 0.00 0.00 43 1011.5
20260505222104 78 69 0.0 3.0 0.00 0.00 0.00 42 1011.5
20260505222021 79 77 0.0 3.0 0.00 0.00 0.00 42 1011.6
20260505221604 79 77 0.0 3.0 0.00 0.00 0.00 42 1011.6
20260505221104 79 71 1.0 3.0 0.00 0.00 0.00 43 1011.6
20260505221023 77 56 1.0 8.0 0.00 0.00 0.00 45 1011.7
20260505220604 77 56 1.0 8.0 0.00 0.00 0.00 45 1011.7
20260505220024 75 280 0.0 3.0 0.00 0.00 0.00 46 1011.8
20260505215605 75 280 0.0 3.0 0.00 0.00 0.00 46 1011.8
20260505215105 76 290 0.0 3.0 0.00 0.00 0.00 46 1011.9
20260505215021 76 292 0.0 5.0 0.00 0.00 0.00 46 1011.9
20260505214104 77 316 3.0 8.0 0.00 0.00 0.00 47 1012.0
20260505214023 76 2 1.0 8.0 0.00 0.00 0.00 48 1012.0
20260505213605 76 2 1.0 8.0 0.00 0.00 0.00 48 1012.0
20260505213025 76 330 2.0 5.0 0.00 0.00 0.00 49 1012.0
20260505212604 76 330 2.0 5.0 0.00 0.00 0.00 49 1012.0
20260505212104 75 341 1.0 5.0 0.00 0.00 0.00 50 1012.1
20260505212023 75 321 0.0 3.0 0.00 0.00 0.00 49 1012.2
20260505211604 75 321 0.0 3.0 0.00 0.00 0.00 49 1012.2
20260505211104 75 354 0.0 5.0 0.00 0.00 0.00 48 1012.3
20260505211024 74 327 2.0 8.0 0.00 0.00 0.00 49 1012.3
20260505210604 74 327 2.0 8.0 0.00 0.00 0.00 49 1012.3
20260505210104 74 94 0.0 3.0 0.00 0.00 0.00 48 1012.4
20260505210023 74 62 2.0 3.0 0.00 0.00 0.00 47 1012.5
20260505205604 74 62 2.0 3.0 0.00 0.00 0.00 47 1012.5
20260505205104 75 32 0.0 5.0 0.00 0.00 0.00 46 1012.5
20260505205022 74 63 3.0 8.0 0.00 0.00 0.00 49 1012.7
20260505204605 74 63 3.0 8.0 0.00 0.00 0.00 49 1012.7
20260505204104 73 357 1.0 5.0 0.00 0.00 0.00 53 1012.6
20260505204023 72 280 0.0 3.0 0.00 0.00 0.00 52 1012.7
20260505203605 72 280 0.0 3.0 0.00 0.00 0.00 52 1012.7
20260505203104 73 277 1.0 6.0 0.00 0.00 0.00 52 1012.8
20260505203023 73 34 1.0 5.0 0.00 0.00 0.00 52 1012.8
20260505202104 73 33 2.0 5.0 0.00 0.00 0.00 52 1012.9
20260505202021 72 14 2.0 12.0 0.00 0.00 0.00 52 1012.9
20260505201604 72 14 2.0 12.0 0.00 0.00 0.00 52 1012.9
20260505201103 71 32 2.0 5.0 0.00 0.00 0.00 58 1013.0
20260505200604 71 37 2.0 9.0 0.00 0.00 0.00 55 1013.0
20260505200025 71 331 3.0 8.0 0.00 0.00 0.00 55 1013.2
20260505195604 71 331 3.0 8.0 0.00 0.00 0.00 55 1013.2
20260505195104 71 71 2.0 3.0 0.00 0.00 0.00 56 1013.1
20260505195021 70 14 2.0 7.0 0.00 0.00 0.00 60 1013.2
20260505194604 70 14 2.0 7.0 0.00 0.00 0.00 60 1013.2
20260505194021 69 346 2.0 9.0 0.00 0.00 0.00 60 1013.2
20260505193604 69 346 2.0 9.0 0.00 0.00 0.00 60 1013.2
20260505193104 69 13 0.0 2.0 0.00 0.00 0.00 58 1013.3
20260505193026 69 16 1.0 7.0 0.00 0.00 0.00 61 1013.3
20260505192604 69 16 1.0 7.0 0.00 0.00 0.00 61 1013.3
20260505192021 69 358 2.0 5.0 0.00 0.00 0.00 59 1013.3
20260505191604 69 358 2.0 5.0 0.00 0.00 0.00 59 1013.3
20260505191104 68 263 1.0 5.0 0.00 0.00 0.00 60 1013.3
20260505191023 68 291 2.0 3.0 0.00 0.00 0.00 60 1013.4
20260505190604 68 291 2.0 3.0 0.00 0.00 0.00 60 1013.4
20260505190104 67 5 3.0 6.0 0.00 0.00 0.00 60 1013.4
20260505190024 67 294 0.0 5.0 0.00 0.00 0.00 61 1013.4
20260505185605 67 294 0.0 5.0 0.00 0.00 0.00 61 1013.4
20260505184604 67 35 2.0 3.0 0.00 0.00 0.00 62 1013.5
20260505184104 67 5 3.0 5.0 0.00 0.00 0.00 62 1013.5
20260505184022 66 239 1.0 5.0 0.00 0.00 0.00 65 1013.6
20260505183604 66 239 1.0 5.0 0.00 0.00 0.00 65 1013.6
20260505183104 66 54 1.0 6.0 0.00 0.00 0.00 62 1013.6
20260505182104 66 10 2.0 3.0 0.00 0.00 0.00 64 1013.6
20260505182021 66 23 3.0 10.0 0.00 0.00 0.00 65 1013.6
20260505181104 65 333 0.0 3.0 0.00 0.00 0.00 65 1013.6
20260505181021 65 331 1.0 5.0 0.00 0.00 0.00 68 1013.7
20260505180104 64 348 1.0 6.0 0.00 0.00 0.00 67 1013.7
20260505180023 65 9 2.0 8.0 0.00 0.00 0.00 67 1013.7
20260505175604 65 9 2.0 8.0 0.00 0.00 0.00 67 1013.7
20260505175021 64 39 1.0 5.0 0.00 0.00 0.00 69 1013.6
20260505174604 64 39 1.0 5.0 0.00 0.00 0.00 69 1013.6
20260505174105 64 70 0.0 5.0 0.00 0.00 0.00 67 1013.6
20260505174025 63 244 0.0 0.0 0.00 0.00 0.00 69 1013.7
20260505173104 62 244 0.0 0.0 0.00 0.00 0.00 69 1013.7
20260505172104 61 238 0.0 0.0 0.00 0.00 0.00 73 1013.7
20260505172021 61 230 0.0 0.0 0.00 0.00 0.00 73 1013.8
20260505171604 61 230 0.0 0.0 0.00 0.00 0.00 73 1013.8
20260505171106 61 167 0.0 0.0 0.00 0.00 0.00 72 1013.9
20260505171022 60 153 0.0 0.0 0.00 0.00 0.00 74 1013.8
20260505170104 60 153 0.0 0.0 0.00 0.00 0.00 74 1013.9
20260505170023 60 144 0.0 2.0 0.00 0.00 0.00 74 1014.0
20260505165604 60 144 0.0 2.0 0.00 0.00 0.00 74 1014.0
20260505165104 60 92 0.0 0.0 0.00 0.00 0.00 74 1014.0
20260505165021 60 88 0.0 3.0 0.00 0.00 0.00 74 1014.1
20260505164106 59 97 0.0 0.0 0.00 0.00 0.00 75 1014.0
20260505164021 59 98 0.0 1.0 0.00 0.00 0.00 75 1014.1
20260505163604 59 98 0.0 1.0 0.00 0.00 0.00 75 1014.1
20260505162604 59 98 0.0 0.0 0.00 0.00 0.00 77 1014.0
20260505162105 59 98 0.0 0.0 0.00 0.00 0.00 77 1014.2
20260505161604 58 98 0.0 0.0 0.00 0.00 0.00 78 1014.2
20260505161106 58 98 0.0 0.0 0.00 0.00 0.00 78 1014.1
20260505161021 58 98 0.0 0.0 0.00 0.00 0.00 79 1014.2
20260505160604 58 98 0.0 0.0 0.00 0.00 0.00 79 1014.2
20260505160106 58 98 0.0 0.0 0.00 0.00 0.00 79 1014.2
20260505153105 57 98 0.0 0.0 0.00 0.00 0.00 82 1014.2
20260505153025 56 98 0.0 0.0 0.00 0.00 0.00 83 1014.1
20260505152604 56 98 0.0 0.0 0.00 0.00 0.00 83 1014.1
20260505152021 56 98 0.0 0.0 0.00 0.00 0.00 84 1014.0
20260505151605 56 98 0.0 0.0 0.00 0.00 0.00 84 1014.0
20260505151104 56 98 0.0 0.0 0.00 0.00 0.00 84 1014.0
20260505151023 56 98 0.0 0.0 0.00 0.00 0.00 85 1014.0
20260505150604 56 98 0.0 0.0 0.00 0.00 0.00 85 1014.0
20260505150106 56 98 0.0 0.0 0.00 0.00 0.00 85 1013.9
20260505140604 55 98 0.0 0.0 0.00 0.00 0.00 85 1013.5
20260505140104 55 98 0.0 0.0 0.00 0.00 0.00 85 1013.5
20260505130105 54 97 0.0 0.0 0.00 0.00 0.00 85 1013.0
20260505125023 54 98 0.0 0.0 0.00 0.00 0.00 85 1012.9
20260505124105 54 98 0.0 0.0 0.00 0.00 0.00 86 1012.9
20260505124022 54 97 0.0 0.0 0.00 0.00 0.00 86 1012.9
20260505123606 54 97 0.0 0.0 0.00 0.00 0.00 86 1012.9
20260505123104 54 98 0.0 0.0 0.00 0.00 0.00 86 1012.8
20260505123021 54 98 0.0 0.0 0.00 0.00 0.00 86 1012.8
20260505122604 54 98 0.0 0.0 0.00 0.00 0.00 86 1012.8
20260505122104 54 97 0.0 0.0 0.00 0.00 0.00 87 1012.8
20260505122021 54 98 0.0 0.0 0.00 0.00 0.00 87 1012.8
20260505121606 54 98 0.0 0.0 0.00 0.00 0.00 87 1012.8
20260505121104 54 97 0.0 0.0 0.00 0.00 0.00 87 1012.7
20260505120604 53 98 0.0 0.0 0.00 0.00 0.00 87 1012.7
20260505120106 53 98 0.0 0.0 0.00 0.00 0.00 88 1012.7
20260505120021 53 98 0.0 0.0 0.00 0.00 0.00 88 1012.5
20260505115604 53 98 0.0 0.0 0.00 0.00 0.00 88 1012.5
20260505115104 53 97 0.0 0.0 0.00 0.00 0.00 88 1012.5
20260505115023 53 98 0.0 0.0 0.00 0.00 0.00 88 1012.6
20260505114604 53 98 0.0 0.0 0.00 0.00 0.00 88 1012.6
20260505114104 53 97 0.0 0.0 0.00 0.00 0.00 88 1012.6
20260505114021 53 97 0.0 0.0 0.00 0.00 0.00 87 1012.6
20260505113021 53 97 0.0 0.0 0.00 0.00 0.00 87 1012.5
20260505112603 53 97 0.0 0.0 0.00 0.00 0.00 87 1012.5
20260505111604 52 98 0.0 0.0 0.00 0.00 0.00 87 1012.5
20260505111021 52 98 0.0 0.0 0.00 0.00 0.00 87 1012.4
20260505110604 52 98 0.0 0.0 0.00 0.00 0.00 87 1012.4
20260505110104 52 97 0.0 0.0 0.00 0.00 0.00 86 1012.3
20260505102105 52 97 0.0 0.0 0.00 0.00 0.00 85 1012.2
20260505102021 52 97 0.0 0.0 0.00 0.00 0.00 85 1012.2
20260505101606 52 97 0.0 0.0 0.00 0.00 0.00 85 1012.2
20260505101104 52 97 0.0 0.0 0.00 0.00 0.00 85 1012.1
20260505100604 53 97 0.0 0.0 0.00 0.00 0.00 85 1012.2
20260505100104 53 97 0.0 0.0 0.00 0.00 0.00 84 1012.1
20260505100022 53 97 0.0 0.0 0.00 0.00 0.00 84 1012.2
20260505095605 53 97 0.0 0.0 0.00 0.00 0.00 84 1012.2
20260505095105 53 97 0.0 0.0 0.00 0.00 0.00 84 1012.1
20260505095021 53 97 0.0 0.0 0.00 0.00 0.00 84 1012.2
20260505094605 53 97 0.0 0.0 0.00 0.00 0.00 84 1012.2
20260505094104 53 97 0.0 0.0 0.00 0.00 0.00 83 1012.2
20260505094021 53 97 0.0 0.0 0.00 0.00 0.00 83 1012.2
20260505093604 53 97 0.0 0.0 0.00 0.00 0.00 83 1012.2
20260505093104 54 98 0.0 0.0 0.00 0.00 0.00 83 1012.2
20260505093021 54 97 0.0 0.0 0.00 0.00 0.00 83 1012.2
20260505092604 54 97 0.0 0.0 0.00 0.00 0.00 83 1012.2
20260505092104 54 97 0.0 0.0 0.00 0.00 0.00 82 1012.1
20260505092021 54 97 0.0 0.0 0.00 0.00 0.00 82 1012.1
20260505091606 54 97 0.0 0.0 0.00 0.00 0.00 82 1012.1
20260505091104 54 98 0.0 0.0 0.00 0.00 0.00 82 1012.1
20260505091023 54 97 0.0 0.0 0.00 0.00 0.00 81 1012.0
20260505090606 54 97 0.0 0.0 0.00 0.00 0.00 81 1012.0
20260505090104 55 97 0.0 0.0 0.00 0.00 0.00 81 1012.1
20260505090021 55 97 0.0 0.0 0.00 0.00 0.00 81 1012.1
20260505085604 55 97 0.0 0.0 0.00 0.00 0.00 81 1012.1
20260505085105 55 97 0.0 0.0 0.00 0.00 0.00 80 1012.1
20260505085021 55 97 0.0 0.0 0.00 0.00 0.00 80 1012.0
20260505084021 56 97 0.0 0.0 0.00 0.00 0.00 79 1011.9
20260505083604 56 97 0.0 0.0 0.00 0.00 0.00 79 1011.9
20260505083104 56 97 0.0 0.0 0.00 0.00 0.00 79 1011.9
20260505083022 56 97 0.0 0.0 0.00 0.00 0.00 79 1011.9
20260505082604 56 97 0.0 0.0 0.00 0.00 0.00 79 1011.9
20260505082104 56 97 0.0 0.0 0.00 0.00 0.00 78 1012.0
20260505082021 57 97 0.0 0.0 0.00 0.00 0.00 78 1011.9
20260505081020 57 97 0.0 0.0 0.00 0.00 0.00 78 1011.9
20260505080604 57 97 0.0 0.0 0.00 0.00 0.00 78 1011.9
20260505080104 57 97 0.0 0.0 0.00 0.00 0.00 77 1011.8
20260505075604 57 97 0.0 0.0 0.00 0.00 0.00 77 1011.8
20260505075106 58 97 0.0 0.0 0.00 0.00 0.00 76 1011.8
20260505075021 58 98 0.0 0.0 0.00 0.00 0.00 76 1011.8
20260505074604 58 98 0.0 0.0 0.00 0.00 0.00 76 1011.8
20260505074106 58 97 0.0 0.0 0.00 0.00 0.00 76 1011.8
20260505074021 58 97 0.0 0.0 0.00 0.00 0.00 76 1011.7
20260505073604 58 97 0.0 0.0 0.00 0.00 0.00 76 1011.7
20260505073021 59 97 0.0 0.0 0.00 0.00 0.00 75 1011.6
20260505072604 59 97 0.0 0.0 0.00 0.00 0.00 75 1011.6
20260505072104 59 97 0.0 0.0 0.00 0.00 0.00 74 1011.6
20260505072021 59 97 0.0 0.0 0.00 0.00 0.00 74 1011.6
20260505070604 60 97 0.0 0.0 0.00 0.00 0.00 74 1011.4
20260505070104 60 97 0.0 0.0 0.00 0.00 0.00 73 1011.4
20260505065604 60 108 0.0 0.0 0.00 0.00 0.00 73 1011.3
20260505065105 61 108 0.0 0.0 0.00 0.00 0.00 73 1011.2
20260505065021 61 108 0.0 0.0 0.00 0.00 0.00 72 1011.2
20260505064604 61 108 0.0 0.0 0.00 0.00 0.00 72 1011.2
20260505064105 61 108 0.0 0.0 0.00 0.00 0.00 72 1011.1
20260505064021 61 108 0.0 0.0 0.00 0.00 0.00 72 1011.1
20260505063604 61 108 0.0 0.0 0.00 0.00 0.00 72 1011.1
20260505063103 61 108 0.0 0.0 0.00 0.00 0.00 71 1011.0
20260505063023 61 108 0.0 0.0 0.00 0.00 0.00 71 1010.9
20260505062603 61 108 0.0 0.0 0.00 0.00 0.00 71 1010.9
20260505062104 62 108 0.0 0.0 0.00 0.00 0.00 71 1010.8
20260505062023 62 108 0.0 0.0 0.00 0.00 0.00 71 1010.8
20260505061604 62 108 0.0 0.0 0.00 0.00 0.00 71 1010.8
20260505061103 62 108 0.0 0.0 0.00 0.00 0.00 70 1010.6
20260505061023 62 108 0.0 0.0 0.00 0.00 0.00 70 1010.6
20260505060604 62 108 0.0 0.0 0.00 0.00 0.00 70 1010.6
20260505060105 62 108 0.0 0.0 0.00 0.00 0.00 69 1010.6
20260505060023 62 108 0.0 0.0 0.00 0.00 0.00 69 1010.6
20260505055105 62 108 0.0 0.0 0.00 0.00 0.00 69 1010.5
20260505055021 62 108 0.0 0.0 0.00 0.00 0.00 69 1010.5
20260505054604 62 108 0.0 0.0 0.00 0.00 0.00 69 1010.5
20260505054105 63 164 0.0 0.0 0.00 0.00 0.00 68 1010.4
20260505054021 63 279 0.0 0.0 0.00 0.00 0.00 68 1010.4
20260505053604 63 279 0.0 0.0 0.00 0.00 0.00 68 1010.4
20260505053104 63 292 0.0 0.0 0.00 0.00 0.00 68 1010.3
20260505053022 63 292 0.0 0.0 0.00 0.00 0.00 67 1010.3
20260505052605 63 292 0.0 0.0 0.00 0.00 0.00 67 1010.3
20260505052104 64 292 0.0 0.0 0.00 0.00 0.00 66 1010.1
20260505052023 64 292 0.0 0.0 0.00 0.00 0.00 66 1010.1
20260505051604 64 292 0.0 0.0 0.00 0.00 0.00 66 1010.1
20260505051104 64 292 0.0 0.0 0.00 0.00 0.00 65 1010.3
20260505050604 65 292 0.0 0.0 0.00 0.00 0.00 65 1010.1
20260505050106 65 292 0.0 0.0 0.00 0.00 0.00 64 1010.1
20260505041104 67 264 0.0 0.0 0.00 0.00 0.00 60 1009.2
20260505041023 68 264 0.0 0.0 0.00 0.00 0.00 59 1009.1
20260505040606 68 264 0.0 0.0 0.00 0.00 0.00 59 1009.1
20260505040106 68 263 0.0 0.0 0.00 0.00 0.00 59 1008.9
20260505040022 69 263 0.0 0.0 0.00 0.00 0.00 58 1008.9
20260505035604 69 263 0.0 0.0 0.00 0.00 0.00 58 1008.9
20260505035104 69 263 0.0 0.0 0.00 0.00 0.00 58 1008.8
20260505035023 70 263 0.0 0.0 0.00 0.00 0.00 57 1008.7
20260505034604 70 263 0.0 0.0 0.00 0.00 0.00 57 1008.7
20260505034103 70 263 0.0 0.0 0.00 0.00 0.00 57 1008.6
20260505034022 70 254 0.0 0.0 0.00 0.00 0.00 57 1008.5
20260505033103 71 254 0.0 0.0 0.00 0.00 0.00 56 1008.4
20260505032604 71 286 0.0 0.0 0.00 0.00 0.00 56 1008.3
20260505032103 71 255 0.0 0.0 0.00 0.00 0.00 55 1008.2
20260505032021 72 272 0.0 1.0 0.00 0.00 0.00 55 1008.1
20260505031604 72 272 0.0 1.0 0.00 0.00 0.00 55 1008.1
20260505031104 72 277 0.0 0.0 0.00 0.00 0.00 55 1008.0
20260505031026 72 265 0.0 0.0 0.00 0.00 0.00 53 1007.9
20260505030604 72 265 0.0 0.0 0.00 0.00 0.00 53 1007.9
20260505025604 73 270 0.0 3.0 0.00 0.00 0.00 53 1007.9
20260505025104 73 274 0.0 3.0 0.00 0.00 0.00 53 1007.7
20260505025022 73 265 0.0 3.0 0.00 0.00 0.00 52 1007.7
20260505024104 74 248 0.0 5.0 0.00 0.00 0.00 52 1007.6
20260505024021 74 281 1.0 7.0 0.00 0.00 0.00 52 1007.6
20260505023604 74 281 1.0 7.0 0.00 0.00 0.00 52 1007.6
20260505023104 74 285 1.0 7.0 0.00 0.00 0.00 51 1007.5
20260505022604 75 275 0.0 0.0 0.00 0.00 0.00 50 1007.5
20260505022104 75 300 0.0 3.0 0.00 0.00 0.00 47 1007.5
20260505022020 75 312 0.0 0.0 0.00 0.00 0.00 45 1007.4
20260505021604 75 312 0.0 0.0 0.00 0.00 0.00 45 1007.4
20260505021104 75 228 0.0 3.0 0.00 0.00 0.00 45 1007.4
20260505021023 76 190 1.0 7.0 0.00 0.00 0.00 44 1007.3
20260505020022 76 309 0.0 7.0 0.00 0.00 0.00 42 1007.3
20260505015104 77 273 2.0 10.0 0.00 0.00 0.00 41 1007.2
20260505015022 77 264 1.0 7.0 0.00 0.00 0.00 41 1007.2
20260505014604 77 264 1.0 7.0 0.00 0.00 0.00 41 1007.2
20260505014103 77 296 1.0 7.0 0.00 0.00 0.00 40 1007.4
20260505013605 78 268 1.0 8.0 0.00 0.00 0.00 40 1007.4
20260505013104 78 316 0.0 2.0 0.00 0.00 0.00 40 1007.4
20260505013023 78 333 1.0 8.0 0.00 0.00 0.00 39 1007.5
20260505012604 78 333 1.0 8.0 0.00 0.00 0.00 39 1007.5
20260505012104 78 346 4.0 10.0 0.00 0.00 0.00 38 1007.6
20260505012021 79 43 2.0 10.0 0.00 0.00 0.00 38 1007.6
20260505011604 79 43 2.0 10.0 0.00 0.00 0.00 38 1007.6
20260505011104 79 328 3.0 10.0 0.00 0.00 0.00 36 1007.6
20260505011021 79 10 3.0 9.0 0.00 0.00 0.00 37 1007.5
20260505010103 79 316 3.0 10.0 0.00 0.00 0.00 36 1007.6
20260505005604 80 348 5.0 10.0 0.00 0.00 0.00 35 1007.6
20260505005104 80 5 1.0 9.0 0.00 0.00 0.00 37 1007.6
20260505005021 80 324 1.0 10.0 0.00 0.00 0.00 37 1007.5
20260505004604 80 324 1.0 10.0 0.00 0.00 0.00 37 1007.5
20260505004104 80 345 1.0 8.0 0.00 0.00 0.00 36 1007.4
20260505004023 80 307 1.0 9.0 0.00 0.00 0.00 37 1007.3
20260505003604 80 307 1.0 9.0 0.00 0.00 0.00 37 1007.3
20260505003104 80 359 2.0 9.0 0.00 0.00 0.00 41 1007.3
20260505003024 80 265 1.0 7.0 0.00 0.00 0.00 41 1007.1